This is the latest recevied weather packets stored in our database for station/object SQ9SMC-13. If no packets are shown the sender has not sent any weather packets the latest 10 day(s).
| Time | Temp. | Humidity | Pressure | Rain* | Wind** | Luminosity | Snow |
|---|---|---|---|---|---|---|---|
| 1777776604 | 0.56° C | 99% | 1020.7 hPa | 0 mm | - | 0 W/m² | - |
| 1777776303 | 0.56° C | 99% | 1020.7 hPa | 0 mm | - | 0 W/m² | - |
| 1777776004 | 0.56° C | 99% | 1020.7 hPa | 0 mm | - | 0 W/m² | - |
| 1777775703 | 1.11° C | 99% | 1020.6 hPa | 0 mm | - | 0 W/m² | - |
| 1777775404 | 1.11° C | 99% | 1020.7 hPa | 0 mm | - | 0 W/m² | - |
| 1777775102 | 0.56° C | 99% | 1020.7 hPa | 0 mm | - | 0 W/m² | - |
| 1777774805 | 0.56° C | 99% | 1020.8 hPa | 0 mm | - | 0 W/m² | - |
| 1777774504 | 0.56° C | 98% | 1020.9 hPa | 0 mm | - | 0 W/m² | - |
| 1777774203 | 1.11° C | 98% | 1020.7 hPa | 0 mm | - | 0 W/m² | - |
| 1777773903 | 1.11° C | 98% | 1020.8 hPa | 0 mm | - | 0 W/m² | - |
| 1777773604 | 1.11° C | 98% | 1020.7 hPa | 0 mm | - | 0 W/m² | - |
| 1777773303 | 1.11° C | 98% | 1020.9 hPa | 0 mm | - | 0 W/m² | - |
| 1777773002 | 1.67° C | 98% | 1020.9 hPa | 0 mm | - | 0 W/m² | - |
| 1777772703 | 1.67° C | 98% | 1020.7 hPa | 0 mm | - | 0 W/m² | - |
| 1777772403 | 1.67° C | 98% | 1020.9 hPa | 0 mm | - | 0 W/m² | - |
| 1777772103 | 1.67° C | 98% | 1020.9 hPa | 0 mm | - | 0 W/m² | - |
| 1777771803 | 1.67° C | 98% | 1020.9 hPa | 0 mm | - | 0 W/m² | - |
| 1777771509 | 1.67° C | 98% | 1020.9 hPa | 0 mm | - | 0 W/m² | - |
| 1777771204 | 1.11° C | 97% | 1020.8 hPa | 0 mm | - | 0 W/m² | - |
| 1777770903 | 1.11° C | 97% | 1020.9 hPa | 0 mm | - | 0 W/m² | - |
| 1777770602 | 1.67° C | 97% | 1020.9 hPa | 0 mm | - | 0 W/m² | - |
| 1777770304 | 1.67° C | 97% | 1020.9 hPa | 0 mm | - | 0 W/m² | - |
| 1777770002 | 2.22° C | 97% | 1020.9 hPa | 0 mm | - | 0 W/m² | - |
| 1777769704 | 2.22° C | 97% | 1020.9 hPa | 0 mm | - | 0 W/m² | - |
| 1777769404 | 2.22° C | 97% | 1020.8 hPa | 0 mm | - | 0 W/m² | - |
* Rain latest hour (hover to see other rain measurements)
** Current wind speed in m/s (hover to see current wind gust speed)